Location: Bailen
(14.1842°N, 120.7958°E)
Time: 04:25:21
(UTC+00:00)

SL-12 R/B(2) - Visible Passes

Search period start: 21 April 2026 00:00
Search period end: 01 May 2026 00:00
Orbit: 1168 x 2180 km, 63.4° (Epoch: 20 April)

Date Brightness Start Highest point End Pass type
(mag) Time Alt. Az. Time Alt. Az. Time Alt. Az.
21 Apr 5.5 11:27:02 10° N 11:38:30 45° ENE 11:44:07 31° ESE visible
21 Apr 5.8 13:31:25 10° NW 13:42:47 43° WSW 13:44:06 42° WSW visible
22 Apr 5.3 11:25:28 10° N 11:37:13 51° ENE 11:43:50 30° ESE visible
22 Apr 6.0 13:30:27 10° NW 13:41:24 38° WSW 13:43:49 35° SW visible
23 Apr 5.2 11:23:56 10° NNW 11:35:56 58° ENE 11:43:37 27° SE visible
23 Apr 6.2 13:29:33 10° NW 13:40:00 32° WSW 13:43:36 28° SW visible
24 Apr 5.2 11:22:27 10° NNW 11:34:37 66° ENE 11:43:29 23° SE visible
24 Apr 6.4 13:28:46 10° NW 13:38:35 28° WSW 13:43:29 22° SW visible
25 Apr 5.1 11:21:01 10° NNW 11:33:18 74° ENE 11:43:25 19° SSE visible
25 Apr 6.6 13:28:08 10° WNW 13:37:11 24° WSW 13:43:25 16° SW visible
26 Apr 5.1 11:19:36 10° NNW 11:31:59 82° ENE 11:43:25 14° SSE visible
26 Apr 6.8 13:27:43 10° WNW 13:35:46 20° WSW 13:43:26 11° SSW visible
27 Apr 5.2 11:18:15 10° NNW 11:30:38 89° WSW 11:43:12 10° SSE visible
27 Apr 6.9 13:27:34 10° WNW 13:34:21 16° WSW 13:41:08 10° SW visible
28 Apr 5.3 11:16:56 10° NNW 11:29:18 80° WSW 11:41:49 10° SSE visible
28 Apr 7.0 13:27:58 10° W 13:32:56 13° WSW 13:37:54 10° SW visible
29 Apr 5.4 11:15:39 10° NNW 11:27:56 71° WSW 11:40:20 10° SSE visible
29 Apr 7.2 13:30:33 10° WSW 13:31:31 10° WSW 13:32:29 10° WSW visible
30 Apr 5.6 11:14:25 10° NNW 11:26:34 63° WSW 11:38:48 10° S visible
